Flag for U.S.A. Weather past 2 weeks in Farmington, New Mexico, U.S.A.

Now
61 °F

Passing clouds.


Feels Like: 61 °F
Forecast: 40 / 67 °F
Wind: 14 mph from West

Location: Four Corners Regional Airport

Current Time: May 24, 2015 at 6:00:02 PM

Latest Report: May 24, 2015 at 4:53 PM


Visibility: 10 mi

Pressure: 29.83 "Hg

Humidity: 41%

Dew point: 37 °F

Location of FarmingtonLocation

Historic Weather in Farmington — Graph

°F

Farmington temperature yesterday

Maximum temperature yesterday: 63 °F (at 3:53 PM)
Minimum temperature yesterday: 43 °F (at 4:53 AM)
Average temperature yesterday: 53 °F

Past Weeks' High & Low Weather Summary

 TemperatureHumidityPressure
High75 °F (May 14, 3:53 PM)97% (May 16, 12:53 AM)30.15 "Hg (May 16, 12:53 AM)
Low32 °F (May 10, 5:53 AM)9% (May 20, 5:53 PM)29.63 "Hg (May 14, 6:53 PM)
Average55 °F52%29.91 "Hg
* Reported May 9 4:53 PM — May 24 4:53 PM, Farmington, Weather by CustomWeather, © 2015

Note: Actual official high and low records may vary slightly from our data, if they occured in-between our weather recording intervals... More about our weather records

Advertising

Farmington weather history for previous 24 hours

 ConditionsComfort  
Time TempWeatherWind HumidityBarometerVisibility
4:53 PM
Sun, May 24
61 °FPassing clouds.14 mph41%29.83 "Hg10 mi
3:53 PM62 °FScattered clouds.14 mph41%29.84 "Hg10 mi
2:53 PM58 °FScattered clouds.12 mph54%29.87 "Hg10 mi
1:53 PM58 °FPartly sunny.9 mph51%29.88 "Hg10 mi
12:53 PM57 °FOvercast.9 mph58%29.90 "Hg10 mi
11:53 AM55 °FOvercast.8 mph64%29.92 "Hg10 mi
10:53 AM51 °FMostly cloudy.6 mph74%29.93 "Hg10 mi
9:53 AM48 °FCloudy.8 mph86%29.93 "Hg10 mi
8:53 AM45 °FCloudy.7 mph93%29.94 "Hg10 mi
8:02 AM45 °FLight rain. Mostly cloudy.3 mph93%29.98 "Hg10 mi
7:53 AM46 °FMore clouds than sun.No wind89%29.93 "Hg10 mi
6:53 AM45 °FOvercast.3 mph93%29.92 "Hg10 mi
5:53 AM45 °FLight rain. Overcast.No wind93%29.91 "Hg10 mi
4:53 AM45 °FLight rain. Overcast.No wind90%29.91 "Hg10 mi
3:53 AM44 °FLight rain. Overcast.6 mph89%29.91 "Hg10 mi
3:00 AM45 °FLight rain. Overcast.9 mph93%29.99 "Hg7 mi
1:53 AM47 °FLight rain. Overcast.3 mph83%29.92 "Hg10 mi
12:53 AM48 °FMostly cloudy.No wind77%29.92 "Hg10 mi
11:53 PM
Sat, May 23
47 °FOvercast.No wind86%29.93 "Hg10 mi
10:53 PM47 °FLight rain. Overcast.3 mph86%29.94 "Hg10 mi
9:53 PM47 °FMostly cloudy.6 mph83%29.94 "Hg10 mi
8:53 PM48 °FMore clouds than sun.6 mph77%29.94 "Hg10 mi
7:53 PM48 °FLight rain. Mostly cloudy.6 mph80%29.95 "Hg10 mi
6:53 PM52 °FPartly sunny.15 mph55%29.94 "Hg10 mi
Weather by CustomWeather, © 2015

See weather overviewHow to use our weather pages